Location: Huisseau
(47.5933°N, 1.4533°E)
Time: 05:43:59
(UTC+00:00)

Helios 1B rocket - Pass Details

Date: 08 August 2025
Orbit: 465 x 469 km, 98.2° (Epoch: 19 April)

Event Time Altitude Azimuth Distance (km) Brightness Sun altitude
Exits shadow 19:11:36 - 113° (ESE) 2,524 5.0 0.1°
Reaches altitude 10° 19:15:01 10° 76° (ENE) 1,651 4.3 -0.4°
Drops below altitude 10° 19:16:59 10° 44° (NE) 1,649 4.6 -0.7°
Enters shadow 20:13:10 -68° 168° (SSE) 12,358 9.1 -8.9°
Maximum altitude 20:49:00 68° 257° (WSW) 519 2.3 -13.6°
